Main page
METAR-TAF:

METAR-TAF

Airports :

Poplar Bluff Municipal Airport

Poplar Bluff, Missouri, United States

latitude: 36-46-14N, longitude: 090-19-20W, elevation: 328 ft

Current weather observation

The report was made 1 hour and 6 minutes ago, at 02:53 UTC
Wind 9 mph from the South
Temperature 72°F
Humidity 73%
Pressure 29.93 in. Hg
Visibility: 10 miles
Clear sky

METAR: KPOF 160253Z AUTO 18008KT 10SM CLR 22/17 A2993 RMK AO2 SLP131 T02220167 53010

Time: 22:59 (03:59 UTC)


TAF: missing

Weather observations and forecasts of more than 4000 airports (METAR and TAF reports).

The available stations are represented by yellow and red dots on the map.

Hover mouse over dot to see the name of the station.

Then click to see weather observations and forecasts.

To change the map : click on the green buttons with a black cross to zoom in, on the green button with a dash to zoom out, or on the green arrows for adjacent maps.


METAR-TAF: